FENGYUN 1C DEB, 36184

Orbit data source: Space-Track

FENGYUN 1C DEB, 36184 is space debris in SSO originally from a launch on Mon, 10 May 1999 UTC launched from the Taiyaun Space Center, China (TSC). Fengyun 1C debris stems from the Chinese weather satellite Fengyun-1C, which was intentionally destroyed by a Chinese anti-satellite missile in 2007. This event dramatically increased the amount of space debris, with thousands of trackable fragments posing hazards to satellites and human spaceflight. The Fengyun 1C debris cloud has become a focal point in discussions about space sustainability and the need for international regulations to prevent the creation of new debris.

Loading next visibility...
Identifier
36184, 1999-025DTH
Orbit
SSO
Country
Flag of CNCN / PRC
Related business
Manufacturer
Unknown
Mission
Spacecraft
Bus & Motor
Unknown
Mass
Unknown
Launch date (UTC)
1999-05-10 (27 years ago)
Launch vehicle
Unknown
Launch site
Taiyaun Space Center, China (TSC)
Object type
Payload
Rocket body
Debris
Shape & HBR
Unknown shape, 0.1 m
Radar Cross Section
Medium (>0.1 m² and <1 m²)

Expand to show TLE details & history
Last TLE update: 1 week ago

TLE from 1 week ago
0 FENGYUN 1C DEB
1 36184U 99025DTH 26220.73854745  .00001453  00000-0  77769-3 0  9994
2 36184  98.5540 204.3909 0130259  19.3926 341.2136 14.10329365658814
Epoch: 2026-08-08T17:43Z
TLE epoch observation values (Epoch: 2026-08-08T17:43:30.499Z)
Latitude
-0.00008°
Longitude
-18.73175°
Altitude
772.025 km
Speed
7.514 km/s
True Right ascension
13h 37m 33s
True Declination
0° 00' 00"
Sunlit
Object was in daylight at epoch
Visualization orbit readout
Latitude
Unknown
Longitude
Unknown
Altitude
Unknown
Speed
Unknown
Apparent Right ascension
Unknown
Apparent Declination
Unknown
Sunlit
N/A
Visualization observer readout
Local Sidereal Time
15:38:03
Azimuth
Unknown
Elevation
Unknown
Doppler factor
Unknown
Orbital elements
Apogee altitude
949.632 km
Perigee altitude
761.185 km
Semi-major axis
7,233.545 km
Eccentricity
0.01303
Inclination
98.554°
RAAN
204.3909°
Arg. of periapsis
19.3926°
True anomaly
340.72539°
Mean anomaly
341.2136°
Eccentric anomaly
340.97025°
Mean motion
3.5279 °/min
Orbital period
102.04 mins
BSTAR
0.00077769
Loading maneuver chart data...
Computing Atmospheric mass density...

Documentation

Showing up to 5 results
|